Вернуться в каталог

CZ-3C R/B

АктивенHEO
NORAD 65487·ROCKET BODY·🇨🇳 China

Запущен Sep 5, 2025 с Xichang Satellite Launch Center

Loading…

Ближайшие Пролёты (ближайшие 24 часа)

TLE

СвежийSource: Space-Track

Эпоха: Sep 14, 2026, 05:58 UTC

1 65487U 25196B   26257.24911993  .00012922  00000-0  94949-3 0  9997
2 65487  28.0460 211.5158 6939089  45.6024 353.4455  2.75211558 10219

Отслеживайте CZ-3C R/B в реальном времени с AllMySat

Download on the App Store